Regional Weather Roundup
Issued by NWS Goodland, KS

Home | Current Version | Previous Version | Graphics & Text | Print | Product List | Glossary On
Versions: 1 2 3 4 5 6 7 8 9 10 11 12 13 14 15 16 17 18 19 20 21 22 23 24 25 26 27 28 29 30 31 32 33 34 35 36 37 38 39 40 41 42 43 44 45 46 47 48 49 50
000
ASUS43 KGLD 180508
RWRGLD

GOODLAND FORECAST AREA HOURLY WEATHER ROUNDUP
NATIONAL WEATHER SERVICE GOODLAND KS
1000 PM MST WED JAN 17 2018

...OFFICIAL OBSERVATIONS...

CITY           SKY/WX    TMP DP  RH WIND       PRES   REMARKS
GOODLAND KS    CLEAR     25  12  58 W10       30.22S WCI  15
HILL CITY KS   CLOUDY    22  10  60 W3        30.25F
IMPERIAL NEB   CLEAR     23  17  78 W5        30.21F
MCCOOK NEB     CLEAR     21  15  78 W6        30.22F
AKRON CO       CLEAR     25  17  72 SW9       30.21F
BURLINGTON CO  CLEAR     20  10  65 W10       30.23F WCI   9
LIMON CO       CLEAR     11   7  84 N5        30.25S
$$

...UNOFFICIAL OBSERVATIONS...

CITY           SKY/WX    TMP DP  RH WIND       PRES   REMARKS
COLBY KS       CLEAR     21  14  73 W7        30.23S
LENORA KS        N/A     25  32 100 SW9         N/A
NORTON KS      CLEAR     18   9  68 SW7       30.23
SHARON SPRINGS   N/A     23   9  54 W7          N/A
TRENTON NEB      N/A     23  32 100 NW5         N/A
KIT CARSON CO    N/A     20   1  43 MISG        N/A
YUMA CO        FAIR      18  12  79 W9        30.22F
$$



USA.gov is the U.S. government's official web portal to all federal, state and local government web resources and services.